This is the latest recevied weather packets stored in our database for station/object N3SBK. If no packets are shown the sender has not sent any weather packets the latest 10 day(s).
| Time | Temp. | Humidity | Pressure | Rain* | Wind** | Luminosity | Snow |
|---|---|---|---|---|---|---|---|
| 1777675035 | 7.78° C | 87% | 1003 hPa | 0 mm | - | 22 W/m² | - |
| 1777674732 | 8.33° C | 87% | 1003.1 hPa | 0 mm | - | 12 W/m² | - |
| 1777674429 | 8.33° C | 87% | 1002.9 hPa | 0 mm | - | 39 W/m² | - |
| 1777674126 | 8.33° C | 87% | 1003 hPa | 0 mm | - | 59 W/m² | - |
| 1777673822 | 8.33° C | 86% | 1002.9 hPa | 0 mm | - | 23 W/m² | - |
| 1777673519 | 8.33° C | 85% | 1003.1 hPa | 0 mm | - | 27 W/m² | - |
| 1777673217 | 8.89° C | 84% | 1003 hPa | 1.27 mm | - | 17 W/m² | - |
| 1777672914 | 8.89° C | 81% | 1003 hPa | 0 mm | - | 14 W/m² | - |
| 1777672611 | 8.89° C | 79% | 1002.9 hPa | 0 mm | - | 44 W/m² | - |
| 1777672306 | 9.44° C | 78% | 1002.9 hPa | 0 mm | - | 55 W/m² | - |
| 1777672001 | 9.44° C | 77% | 1002.9 hPa | 0 mm | - | 26 W/m² | - |
| 1777671696 | 9.44° C | 76% | 1002.8 hPa | 0 mm | - | 29 W/m² | - |
| 1777671394 | 9.44° C | 75% | 1002.7 hPa | 1.78 mm | - | 40 W/m² | - |
| 1777671090 | 10° C | 77% | 1002.6 hPa | 1.78 mm | - | 54 W/m² | - |
| 1777670787 | 10° C | 74% | 1002.7 hPa | 0 mm | - | 58 W/m² | - |
| 1777670483 | 10° C | 74% | 1002.6 hPa | 0 mm | - | 61 W/m² | - |
| 1777670180 | 10° C | 71% | 1002.5 hPa | 0 mm | - | 49 W/m² | - |
| 1777669878 | 10.56° C | 70% | 1002.2 hPa | 0 mm | - | 36 W/m² | - |
| 1777669574 | 10.56° C | 73% | 1002.1 hPa | 0 mm | - | 34 W/m² | - |
| 1777669271 | 10.56° C | 72% | 1001.9 hPa | 0 mm | - | 93 W/m² | - |
| 1777668967 | 10.56° C | 71% | 1001.9 hPa | 0 mm | - | 97 W/m² | - |
| 1777668665 | 10.56° C | 70% | 1001.9 hPa | 0 mm | - | 117 W/m² | - |
| 1777668361 | 10.56° C | 71% | 1002.1 hPa | 0 mm | - | 74 W/m² | - |
| 1777668057 | 10.56° C | 69% | 1002.1 hPa | 0 mm | - | 50 W/m² | - |
| 1777667754 | 10.56° C | 65% | 1002.2 hPa | 0 mm | - | 49 W/m² | - |
* Rain latest hour (hover to see other rain measurements)
** Current wind speed in m/s (hover to see current wind gust speed)